This demonstration page uses our WeatherBlox Daily Observations layout. Learn more.

Left ArrowRight Arrow

Hourly Observations for July 3, 2016

Temp ( °F °C ) Dew Point ( °F °C ) Humidity (%) Winds ( mph kmh ) Pressure ( in mb ) Visibility ( mi km ) Precip ( " mm )
12:15 am 00:15 Cloudy with Mist and Fog 62 16.9 61 16.2 96 96 ENE 9 15 29.91 1013 5 8 N/A
12:35 am 00:35 Cloudy with Mist and Fog 63 17 61 16.2 95 95 NE 10 17 29.91 1013 5 8 N/A
12:55 am 00:55 Cloudy with Mist and Fog 63 17 61 16.2 95 95 ENE 10 17 29.91 1013 3 4 N/A
1:15 am 01:15 Cloudy with Mist and Fog 62 16.8 61 16.2 96 96 ENE 9 15 29.91 1013 2 3 N/A
1:35 am 01:35 Cloudy 62 16.8 61 16.2 96 96 ENE 10 17 29.91 1013 7 11 N/A
1:55 am 01:55 Cloudy 62 16.8 61 16.2 96 96 NE 8 13 29.91 1013 7 11 N/A
2:15 am 02:15 Cloudy with Mist and Fog 62 16.7 61 16.1 96 96 NE 7 11 29.91 1013 4 6 N/A
2:35 am 02:35 Cloudy with Mist and Fog 62 16.7 61 16.1 96 96 NE 8 13 29.91 1013 2 3 N/A
2:55 am 02:55 Cloudy with Mist and Fog 62 16.6 61 16 96 96 ENE 9 15 29.91 1013 2 3 N/A
3:15 am 03:15 Cloudy with Mist and Fog 62 16.6 61 16 96 96 ENE 7 11 29.91 1013 3 4 N/A
3:35 am 03:35 Cloudy with Mist and Fog 62 16.5 61 16 97 97 ENE 12 19 29.91 1013 4 6 N/A
3:55 am 03:55 Cloudy with Mist and Fog 62 16.6 61 16 96 96 ENE 7 11 29.91 1013 4 6 N/A
4:15 am 04:15 Cloudy with Mist and Fog 62 16.6 61 16 96 96 ENE 7 11 29.91 1013 2 3 N/A
4:35 am 04:35 Cloudy with Mist and Fog 62 16.5 61 16 97 97 ENE 7 11 29.91 1013 3 5 N/A
4:55 am 04:55 Cloudy with Mist and Fog 62 16.5 60 15.8 96 96 ENE 8 13 29.91 1013 2 3 N/A
5:15 am 05:15 Cloudy with Mist and Fog 62 16.5 60 15.8 96 96 ENE 6 9 29.91 1013 5 8 N/A
5:35 am 05:35 Cloudy 62 16.5 60 15.8 96 96 ENE 7 11 29.91 1013 7 11 N/A
5:55 am 05:55 Cloudy with Mist and Fog 61 16.3 60 15.7 96 96 ENE 8 13 29.91 1013 5 8 N/A
6:15 am 06:15 Cloudy 61 16.2 60 15.6 96 96 NE 7 11 29.91 1013 7 11 N/A
6:35 am 06:35 Cloudy with Mist and Fog 61 16.2 60 15.6 96 96 ENE 8 13 29.91 1013 1 2 N/A
6:55 am 06:55 Cloudy with Mist and Fog 61 16.1 60 15.5 96 96 ENE 7 11 29.91 1013 1 2 N/A
7:15 am 07:15 Cloudy 61 16 60 15.4 96 96 ENE 7 11 29.91 1013 7 11 N/A
7:35 am 07:35 Cloudy with Mist and Fog 61 16 60 15.3 96 96 ENE 7 11 29.91 1013 4 6 N/A
7:55 am 07:55 Cloudy 61 16.1 60 15.5 96 96 ENE 6 9 29.91 1013 7 11 N/A
8:15 am 08:15 Cloudy 62 16.5 60 15.7 95 95 NE 6 9 29.91 1013 7 11 N/A
8:35 am 08:35 Cloudy 62 16.7 60 15.7 94 94 NNE 6 9 29.94 1014 7 11 N/A
8:55 am 08:55 Cloudy with Mist and Fog 62 16.4 60 15.6 95 95 NNE 7 11 29.94 1014 1 2 N/A
9:15 am 09:15 Cloudy 62 16.4 60 15.6 95 95 ENE 7 11 29.94 1014 7 11 N/A
9:35 am 09:35 Cloudy 62 16.5 60 15.5 94 94 NE 6 9 29.94 1014 7 11 N/A
9:55 am 09:55 Cloudy with Mist and Fog 62 16.5 60 15.5 94 94 NE 7 11 29.94 1014 4 6 N/A
10:15 am 10:15 Cloudy with Mist and Fog 62 16.6 60 15.8 95 95 NNE 6 9 29.94 1014 2 3 N/A
10:35 am 10:35 Cloudy with Mist and Fog 63 17 61 16.1 94 94 NNE 7 11 29.94 1014 3 4 N/A
10:55 am 10:55 Cloudy with Mist and Fog 63 17.2 61 16.1 93 93 ENE 8 13 29.94 1014 4 6 N/A
11:15 am 11:15 Cloudy 63 17.2 61 16.1 93 93 NE 7 11 29.94 1014 7 11 N/A
11:35 am 11:35 Cloudy 63 17 60 15.7 92 92 ENE 6 9 29.94 1014 7 11 N/A
11:55 am 11:55 Cloudy 63 17.2 61 15.9 92 92 E 6 9 29.94 1014 10 16 N/A
12:15 pm 12:15 Cloudy 63 17.3 61 15.9 92 92 NNE 7 11 29.94 1014 10 16 N/A
12:35 pm 12:35 Cloudy 63 17.4 60 15.8 90 90 NE 7 11 29.94 1014 7 11 N/A
12:55 pm 12:55 Cloudy 64 17.6 60 15.8 89 89 ENE 6 9 29.94 1014 10 16 N/A
1:15 pm 13:15 Cloudy 64 17.9 61 16 89 89 NE 5 7 29.94 1014 10 16 N/A
1:35 pm 13:35 Cloudy 65 18.1 61 16.1 88 88 NNE 5 7 29.94 1014 10 16 N/A
1:55 pm 13:55 Cloudy 64 18 61 16 88 88 ENE 6 9 29.94 1014 10 16 N/A
2:15 pm 14:15 Cloudy 65 18.1 61 16.1 88 88 ENE 5 7 29.94 1014 10 16 N/A
2:35 pm 14:35 Cloudy 65 18.2 61 16.1 88 88 ENE 5 7 29.94 1014 10 16 N/A
2:55 pm 14:55 Cloudy 65 18.1 61 16.1 88 88 N N/A 29.94 1014 10 16 N/A
3:15 pm 15:15 Cloudy 65 18.4 61 16.2 87 87 N N/A 29.94 1014 10 16 N/A
3:35 pm 15:35 Cloudy 66 18.7 61 16.1 85 85 N N/A 29.94 1014 10 16 N/A
3:55 pm 15:55 Cloudy 66 19 61 16.3 84 84 E 3 6 29.91 1013 10 16 N/A
4:15 pm 16:15 Cloudy 67 19.4 62 16.5 83 83 N N/A 29.88 1012 10 16 N/A
4:35 pm 16:35 Cloudy 67 19.3 61 16.3 83 83 N N/A 29.88 1012 10 16 N/A
4:55 pm 16:55 Cloudy 66 19.1 62 16.4 84 84 N N/A 29.91 1013 10 16 N/A
5:15 pm 17:15 Cloudy 66 19 62 16.5 86 86 E 3 6 29.91 1013 10 16 N/A
5:35 pm 17:35 Cloudy 66 18.9 62 16.4 86 86 E 3 6 29.91 1013 10 16 N/A
5:55 pm 17:55 Cloudy 66 19 62 16.4 85 85 SE 3 6 29.91 1013 10 16 N/A
6:15 pm 18:15 Cloudy 66 19.1 62 16.5 85 85 SE 3 6 29.91 1013 10 16 N/A
6:35 pm 18:35 Cloudy 66 19 62 16.5 86 86 ESE 3 6 29.91 1013 10 16 N/A
6:55 pm 18:55 Cloudy 66 19 62 16.5 86 86 SE 3 6 29.85 1011 10 16 N/A
7:15 pm 19:15 Cloudy 66 18.8 62 16.5 87 87 ESE 5 7 29.88 1012 10 16 N/A
7:35 pm 19:35 Cloudy 66 18.9 62 16.6 87 87 E 7 11 29.85 1011 10 16 N/A
7:55 pm 19:55 Cloudy 66 18.8 62 16.6 87 87 E 8 13 29.88 1012 10 16 N/A
8:15 pm 20:15 Cloudy 66 18.7 62 16.7 88 88 ESE 6 9 29.88 1012 10 16 N/A
8:35 pm 20:35 Cloudy 65 18.6 62 16.6 88 88 ESE 6 9 29.88 1012 7 11 N/A
8:55 pm 20:55 Cloudy 65 18.5 62 16.5 88 88 ESE 3 6 29.88 1012 7 11 N/A
9:15 pm 21:15 Cloudy 65 18.3 61 16.3 88 88 SE 5 7 29.88 1012 10 16 N/A
9:35 pm 21:35 Cloudy 65 18.1 61 16.1 88 88 ESE 6 9 29.88 1012 10 16 N/A
9:55 pm 21:55 Cloudy 64 18 61 16.1 89 89 ESE 3 6 29.91 1013 10 16 N/A
10:15 pm 22:15 Cloudy 64 18 61 16.1 89 89 N N/A 29.91 1013 10 16 N/A
10:35 pm 22:35 Cloudy 64 17.7 61 16.1 90 90 N N/A 29.91 1013 7 11 N/A
10:55 pm 22:55 Cloudy 64 17.6 61 16.1 91 91 ESE 6 9 29.88 1012 7 11 N/A
11:15 pm 23:15 Cloudy 63 17.3 61 16 92 92 SE 3 6 29.88 1012 7 11 N/A
11:35 pm 23:35 Cloudy 63 17.4 61 16 92 92 ESE 3 6 29.88 1012 7 11 N/A
11:55 pm 23:55 Cloudy 63 17.4 61 16 92 92 SE 5 7 29.88 1012 7 11 N/A

Powered by AerisWeather